Home   Weather   Prague   Past weeks

Flag for Czech Republic Past Weather in Prague, Czech Republic — Yesterday and Last 2 Weeks

Now
14 °F

Ice fog.


Feels Like: 14 °F
Forecast: 11 / 26 °F
Wind: 2 mph from Southwest

Location: Prague Ruzyne Airport

Current Time: Jan 21, 2017 at 1:13:19 am

Latest Report: Jan 21, 2017 at 12:30 am


Visibility: 2 mi

Pressure: 30.48 "Hg

Humidity: 92%

Dew Point: 12 °F

Location of PragueLocation

Past Weather in Prague — Graph

°F

Prague Temperature Yesterday

Maximum temperature yesterday: 21 °F (at 1:30 pm)
Minimum temperature yesterday: 5 °F (at 3:00 am)
Average temperature yesterday: 13 °F

High & Low Weather Summary for the Past Weeks

 TemperatureHumidityPressure
High39 °F (Jan 13, 6:10 am)100% (Jan 11, 5:38 pm)30.66 "Hg (Jan 11, 5:38 pm)
Low3 °F (Jan 7, 4:00 am)60% (Jan 13, 10:00 am)29.21 "Hg (Jan 13, 6:00 am)
Average22 °F85%30.16 "Hg
* Reported Jan 6 12:00 am — Jan 21 12:00 am, Prague, Weather by CustomWeather, © 2017

Note: Actual official high and low records may vary slightly from our data, if they occured in-between our weather recording intervals... More about our weather records

Advertising

Prague Weather History for the Previous 24 Hours

Scroll right to see more
 ConditionsComfort  
Time TempWeatherWind HumidityBarometerVisibility
12:00 am
Sat, Jan 21
14 °FIce fog.1 mph92%30.48 "Hg2 mi
11:30 pm
Fri, Jan 20
12 °FIce fog.2 mph92%30.51 "Hg2 mi
11:00 pm16 °FIce fog.No wind86%30.51 "Hg2 mi
10:30 pm16 °FIce fog.3 mph93%30.51 "Hg2 mi
10:00 pm16 °FIce fog.No wind93%30.51 "Hg2 mi
9:30 pm18 °FIce fog.1 mph93%30.51 "Hg2 mi
9:00 pm16 °FIce fog.1 mph93%30.51 "Hg2 mi
8:30 pm16 °FIce fog.No wind93%30.51 "Hg2 mi
8:00 pm18 °FIce fog.No wind93%30.51 "Hg2 mi
7:30 pm16 °FIce fog.1 mph93%30.51 "Hg2 mi
7:00 pm18 °FIce fog.3 mph93%30.51 "Hg2 mi
6:30 pm18 °FIce fog.1 mph93%30.51 "Hg2 mi
6:00 pm18 °FIce fog.3 mph93%30.51 "Hg2 mi
5:30 pm18 °FIce fog.2 mph86%30.51 "Hg3 mi
5:00 pm19 °FIce fog.1 mph86%30.51 "Hg2 mi
4:30 pm19 °FIce fog.2 mph86%30.54 "Hg1 mi
4:00 pm19 °FIce fog.3 mph86%30.51 "Hg1 mi
3:30 pm19 °FIce fog.5 mph93%30.54 "Hg2 mi
3:00 pm21 °FIce fog.2 mph86%30.54 "Hg2 mi
2:30 pm21 °FIce fog.3 mph86%30.54 "Hg2 mi
2:00 pm19 °FIce fog.3 mph93%30.54 "Hg1 mi
1:30 pm21 °FIce fog.3 mph86%30.54 "Hg1 mi
1:00 pm19 °FIce fog.3 mph93%30.54 "Hg1 mi
12:30 pm19 °FIce fog.2 mph86%30.57 "Hg1 mi
12:00 pm18 °FIce fog.3 mph93%30.57 "Hg1 mi
11:30 am18 °FIce fog.3 mph86%30.57 "Hg1 mi
11:00 am16 °FIce fog.3 mph86%30.57 "Hg1 mi
10:30 am16 °FIce fog.2 mph86%30.57 "Hg1 mi
10:00 am14 °FIce fog.2 mph85%30.57 "Hg1 mi
9:30 am12 °FIce fog.2 mph85%30.57 "Hg1 mi
9:00 am10 °FIce fog.1 mph92%30.57 "Hg1 mi
8:30 am9 °FIce fog.1 mph92%30.57 "Hg1 mi
8:00 am7 °FIce fog.2 mph92%30.57 "Hg1 mi
7:30 am9 °FIce fog.2 mph85%30.57 "Hg2 mi
7:00 am9 °FIce fog.2 mph85%30.57 "Hg2 mi
6:30 am9 °FIce fog.2 mph85%30.57 "Hg2 mi
6:00 am7 °FIce fog.2 mph92%30.57 "Hg2 mi
5:30 am9 °FIce fog.2 mph85%30.57 "Hg1 mi
5:23 am9 °FSleet. Overcast.5 mph92%30.57 "Hg1 mi
5:00 am9 °FIce fog.3 mph92%30.57 "Hg0 mi
4:30 am7 °FIce fog.2 mph85%30.57 "Hg0 mi
4:00 am5 °FIce fog.2 mph92%30.57 "Hg0 mi
3:30 am5 °FIce fog.2 mph92%30.57 "Hg0 mi
3:07 am5 °FIce fog.2 mph85%30.57 "Hg0 mi
3:00 am5 °FFrigid.2 mph92%30.57 "Hg2 mi
2:30 am9 °FIce fog.No wind85%30.57 "Hg2 mi
2:00 am9 °FIce fog.3 mph85%30.57 "Hg2 mi
1:30 am10 °FCold.1 mph92%30.57 "Hg2 mi
1:00 am9 °FIce fog.2 mph85%30.57 "Hg2 mi
Weather by CustomWeather, © 2017

See weather overviewHow to use our weather pages